C/2024 E1 ( Wierzchos )

Japanese version
Home page
Updated on February 7, 2025

---------------------------------------------------------------------

* Profile

Discovery Date March 3, 2024
Magnitude 20.4 mag
Discoverer Kacper W. Wierzchos (Mt. Lemmon Survey)

* Pictures

* Orbital Elements

Epoch 2024 Oct. 17.0 TT = JDT 2460600.5
T 2026 Jan. 20.76013 TT                                 Rudenko
q   0.5655110            (2000.0)            P               Q
z  -0.0000439      Peri.  243.65056     +0.35491836     -0.17080093
 +/-0.0000158      Node   108.09443     +0.02267288     +0.98445302
e   1.0000248      Incl.   75.23605     -0.93462233     -0.04097912
From 312 observations 2024 Feb. 15-Nov. 7, mean residual 0".4.

* Finding Charts

* Magnitudes Graph

        m1 = 7.0 + 5 log d + 10.0 log r

---------------------------------------------------------------------

The orbital elements are published on M.P.E.C. 2024-V192.
The charts are made with StellaNavigator Ver.11 (AstroArts).
The magnitudes graphs are made with Comet for Windows.

---------------------------------------------------------------------

Copyright(C) Seiichi Yoshida (comet@aerith.net). All rights reserved.